Weather History for Spokane Fairchild, WA

Change the Weather History Date:

Tuesday, April 8, 2014

  Actual Average Record
Temperature  
Mean Temperature 55 °F -  
Max Temperature 68 °F 51 °F 68 °F (2003)
Min Temperature 42 °F 32 °F 26 °F (1998)
Degree Days  
Heating Degree Days 10    
Growing Degree Days 5 (Base 50)    
Moisture  
Dew Point 38 °F    
Average Humidity 56    
Maximum Humidity 83    
Minimum Humidity 27    
Precipitation  
Precipitation 0.00 in - - ()
Sea Level Pressure  
Sea Level Pressure 30.02 in    
Wind  
Wind Speed 9 mph (SSW)    
Max Wind Speed 21 mph    
Max Gust Speed 26 mph    
Visibility 10 miles    
Events Rain    
Averages and records for this station are not official NWS values.
T = Trace of Precipitation, MM = Missing Value Source: NWS Daily Summary

Daily Weather History Graph

Daily Weather History Graph

Search for Another Location

Airport:

Trip Planner

Search our weather history database for the weather conditions in past years. The results will help you decide how hot, cold, wet, or windy it might be!

Date:

Astronomy

Apr. 08, 2014 Rise Set
Actual Time 6:15 AM PDT 7:30 PM PDT
Civil Twilight 5:43 AM PDT 8:02 PM PDT
Nautical Twilight 5:05 AM PDT 8:40 PM PDT
Astronomical Twilight 4:24 AM PDT 9:21 PM PDT
Moon 1:04 PM PDT (4/8) 2:55 AM PDT (4/8)
Length of Visible Light 14h 18m
Length of Day
13h 15m
Waxing Gibbous, 63% of the Moon is Illuminated
Apr 8
Waxing Gibbous
Apr 15
Full
Apr 22
Last Quarter
Apr 28
New
May 6
First Quarter

Hourly Weather History & Observations

Time (PDT) Temp. Windchill Dew Point Humidity Pressure Visibility Wind Dir Wind Speed Gust Speed Precip Events Conditions
12:58 AM 47.1 °F - 38.3 °F 71% 30.14 in 10.0 mi SSE 5.8 mph - N/A   Clear
1:58 AM 48.4 °F - 39.0 °F 70% 30.12 in 10.0 mi SE 4.6 mph - N/A   Clear
2:58 AM 45.3 °F 43.0 °F 38.3 °F 76% 30.11 in 10.0 mi SE 4.6 mph - N/A   Clear
3:58 AM 46.0 °F 43.9 °F 38.3 °F 74% 30.10 in 10.0 mi SE 4.6 mph - N/A   Clear
4:58 AM 43.3 °F 38.6 °F 37.9 °F 81% 30.09 in 10.0 mi SSE 8.1 mph - N/A   Clear
5:58 AM 43.9 °F 41.3 °F 38.1 °F 80% 30.09 in 10.0 mi ESE 4.6 mph - N/A   Clear
6:58 AM 42.6 °F 40.9 °F 37.8 °F 83% 30.10 in 10.0 mi SSW 3.5 mph - N/A   Clear
7:21 AM 44.6 °F 42.2 °F 39.2 °F 81% 30.08 in 10.0 mi South 4.6 mph - N/A   Clear
7:31 AM 46.4 °F 45.2 °F 41.0 °F 81% 30.08 in 10.0 mi SE 3.5 mph - N/A   Clear
7:58 AM 48.0 °F - 41.2 °F 77% 30.10 in 10.0 mi Variable 3.5 mph - 0.00 in   Clear
8:58 AM 54.1 °F - 42.4 °F 65% 30.08 in 10.0 mi South 11.5 mph - N/A   Clear
9:58 AM 58.5 °F - 42.1 °F 55% 30.09 in 10.0 mi SSW 15.0 mph - N/A   Clear
10:58 AM 61.3 °F - 42.8 °F 51% 30.10 in 10.0 mi SW 16.1 mph - N/A   Clear
11:58 AM 63.3 °F - 41.4 °F 45% 30.08 in 10.0 mi SW 17.3 mph - N/A   Clear
12:58 PM 65.1 °F - 41.0 °F 41% 30.05 in 10.0 mi SSW 20.7 mph 23.0 mph N/A   Clear
1:58 PM 66.9 °F - 37.4 °F 34% 30.03 in 10.0 mi SSW 16.1 mph 23.0 mph 0.00 in   Clear
2:58 PM 67.3 °F - 36.1 °F 32% 30.00 in 10.0 mi SSW 16.1 mph 25.3 mph N/A   Clear
3:58 PM 68.0 °F - 33.8 °F 28% 29.97 in 10.0 mi SSW 18.4 mph 26.5 mph N/A   Clear
4:58 PM 67.6 °F - 32.2 °F 27% 29.96 in 10.0 mi SW 17.3 mph - N/A   Clear
5:58 PM 65.8 °F - 32.0 °F 28% 29.94 in 10.0 mi SSW 18.4 mph - N/A   Overcast
6:58 PM 62.8 °F - 34.5 °F 35% 29.91 in 10.0 mi SSW 9.2 mph - N/A   Mostly Cloudy
7:58 PM 60.4 °F - 37.4 °F 42% 29.88 in 10.0 mi South 10.4 mph - N/A   Overcast
8:58 PM 60.6 °F - 33.4 °F 36% 29.88 in 10.0 mi SSW 16.1 mph - N/A   Overcast
9:36 PM 57.2 °F - 35.6 °F 44% 29.88 in 10.0 mi WSW 12.7 mph - N/A   Mostly Cloudy
9:58 PM 54.7 °F - 36.5 °F 50% 29.89 in 10.0 mi WSW 13.8 mph - N/A   Scattered Clouds
10:58 PM 53.4 °F - 42.8 °F 67% 29.90 in 10.0 mi WSW 15.0 mph - N/A   Mostly Cloudy
11:41 PM 53.6 °F - 41.0 °F 62% 29.91 in 10.0 mi WSW 18.4 mph - N/A Rain Light Rain
11:58 PM 52.5 °F - 41.0 °F 65% 29.91 in 10.0 mi WSW 16.1 mph - 0.00 in   Light Drizzle